Flag for Switzerland Weather past 2 weeks in Allschwil, Basel-Land, Switzerland

Now
32 °F

Light snow. Overcast.


Feels Like: 28 °F
Forecast: 30 / 40 °F
Wind: 3 mph from South

Location: Bale-Mulhouse

Current Time: Jan 26, 2015 at 8:33:12 AM

Latest Report: Jan 26, 2015 at 7:00 AM


Visibility: 2 mi

Pressure: 30.42 "Hg

Humidity: 96%

Dew point: 31 °F

Location of AllschwilLocation

Historic Weather in Allschwil — Graph

°F

Allschwil temperature yesterday

Maximum temperature yesterday: 37 °F (at 2:00 PM)
Minimum temperature yesterday: 32 °F (at 12:00 AM)
Average temperature yesterday: 34 °F

Past Weeks' High & Low Weather Summary

 TemperatureHumidityPressure
High61 °F (Jan 13, 3:00 PM)98% (Jan 20, 7:00 AM)30.52 "Hg (Jan 20, 7:00 AM)
Low27 °F (Jan 18, 6:00 AM)36% (Jan 13, 3:00 PM)29.73 "Hg (Jan 16, 3:00 PM)
Average37 °F86%30.08 "Hg
* Reported Jan 11 7:00 AM — Jan 26 7:00 AM, Allschwil, Weather by CustomWeather, © 2014

Note: Actual official high and low records may vary slightly from our data, if they occured in-between our weather recording intervals... More about our weather records

Advertising

Allschwil weather history for previous 24 hours

 ConditionsComfort  
Time TempWeatherWind HumidityBarometerVisibility
7:00 AM
Jan 26
32 °FLight snow. Overcast.3 mph96%30.42 "Hg2 mi
6:00 AM32 °FLight snow. Overcast.No wind96%30.42 "Hg2 mi
5:00 AM32 °FLight snow. Overcast.No wind96%30.42 "Hg2 mi
3:00 AM31 °FOvercast.1 mph94%30.43 "Hg4 mi
2:00 AM32 °FOvercast.1 mph95%30.43 "Hg5 mi
1:00 AM32 °FOvercast.1 mph93%30.44 "Hg5 mi
12:00 AM32 °FOvercast.No wind90%30.46 "Hg6 mi
11:00 PM
Jan 25
33 °FOvercast.No wind89%30.46 "Hg6 mi
10:00 PM33 °FOvercast.5 mph91%30.46 "Hg6 mi
9:00 PM34 °FOvercast.5 mph90%30.47 "Hg7 mi
8:00 PM34 °FOvercast.3 mph90%30.47 "Hg7 mi
7:00 PM35 °FOvercast.3 mph89%30.47 "Hg16 mi
6:00 PM36 °FOvercast.2 mph82%30.47 "Hg16 mi
5:00 PM36 °FOvercast.3 mph80%30.45 "Hg16 mi
4:00 PM37 °FOvercast.5 mph77%30.45 "Hg16 mi
3:00 PM37 °FOvercast.6 mph78%30.44 "Hg12 mi
2:00 PM37 °FOvercast.5 mph78%30.45 "Hg12 mi
1:00 PM37 °FOvercast.5 mph78%30.47 "Hg12 mi
12:00 PM36 °FOvercast.7 mph86%30.49 "Hg11 mi
11:00 AM35 °FOvercast.7 mph89%30.49 "Hg9 mi
10:00 AM34 °FOvercast.5 mph90%30.48 "Hg9 mi
9:00 AM33 °FOvercast.7 mph92%30.47 "Hg9 mi
8:00 AM33 °FOvercast.5 mph91%30.45 "Hg9 mi
Weather by CustomWeather, © 2014

See weather overviewHow to use our weather pages